HST
1 20580U 90037B   25190.87874761  .00003534  00000-0  12732-3 0  9992
2 20580  28.4678 251.0835 0001924 356.0816   3.9763 15.25523964736412
ISS (ZARYA)
1 25544U 98067A   25191.22743991  .00007981  00000-0  14530-3 0  9996
2 25544  51.6351 192.8633 0002509   1.3942  87.9726 15.50465878518732
CXO
1 25867U 99040B   25193.23688302  .00000730  00000-0  00000+0 0  9991
2 25867  49.9889 128.6492 8381586 309.7673   0.3172  0.37796383 27191